Location: Добрич
(43.6638°N, 27.9002°E)
Time: 04:57:39
(UTC+03:00)

ISS - Pass Details

Date: 17 April 2026
Orbit: 414 x 424 km, 51.6° (Epoch: 15 May)

Event Time Altitude Azimuth Distance (km) Brightness Sun altitude
Exits shadow 05:38:12 - 200° (SSW) 2,040 -0.7 -8.4°
Reaches altitude 10° 05:39:46 10° 188° (S) 1,491 -1.3 -8.2°
Maximum altitude 05:42:25 22° 135° (SE) 966 -1.6 -7.7°
Drops below altitude 10° 05:45:07 10° 83° (E) 1,504 0.6 -7.3°
Sets 05:47:30 0° 67° (ENE) 2,375 2.9 -6.9°
